,,Stat5,,Stat1,,Stat2,,Stat3,,Stat4,,Wind1,,Wind1,
time,status,PA1M_AVG,status,PR1M_SUM,status,RH1M_AVG,status,SR1M_AVG,status,TA1M_AVG,status,W1dAve1m,status,W1sAve1m,
2000-06-23, 00:00:00,VALID,919.48,VALID,0,VALID,92.1367,VALID,-0.0679233,VALID,19.4763,VALID,203,VALID,0.56875,
2000-06-23, 00:01:00,VALID,919.484,VALID,0,VALID,91.5479,VALID,-0.0679233,VALID,19.4758,VALID,196,VALID,0.516426,
2000-06-23, 00:02:00,VALID,919.457,VALID,0,VALID,90.5408,VALID,-0.0849042,VALID,19.4818,VALID,200,VALID,0.46543,
2000-06-23, 00:03:00,VALID,919.446,VALID,0,VALID,90.9248,VALID,-0.101885,VALID,19.5081,VALID,196,VALID,0.00600962,
2000-06-23, 00:04:00,VALID,919.427,VALID,0,VALID,90.9591,VALID,-0.0849042,VALID,19.5369,VALID,196,VALID,0,
2000-06-23, 00:05:00,VALID,919.418,VALID,0,VALID,91.4385,VALID,-0.101885,VALID,19.5337,VALID,196,VALID,0,
2000-06-23, 00:06:00,VALID,919.394,VALID,0,VALID,91.6356,VALID,-0.0849042,VALID,19.5374,VALID,188,VALID,0,
2000-06-23, 00:07:00,VALID,919.38,VALID,0,VALID,92.0578,VALID,-0.0509425,VALID,19.5563,VALID,180,VALID,0,
2000-06-23, 00:08:00,VALID,919.371,VALID,0,VALID,92.2104,VALID,-0.0849042,VALID,19.5397,VALID,180,VALID,0,
2000-06-23, 00:09:00,VALID,919.365,VALID,0,VALID,92.0324,VALID,-0.0849042,VALID,19.5181,VALID,180,VALID,0,
2000-06-23, 00:10:00,VALID,919.353,VALID,0,VALID,91.7984,VALID,-0.0339617,VALID,19.4719,VALID,180,VALID,0,
2000-06-23, 00:11:00,VALID,919.348,VALID,0,VALID,92.0883,VALID,0,VALID,19.4264,VALID,180,VALID,0,
2000-06-23, 00:12:00,VALID,919.352,VALID,0,VALID,91.7653,VALID,0,VALID,19.3814,VALID,180,VALID,0,
2000-06-23, 00:13:00,VALID,919.336,VALID,0,VALID,92.5474,VALID,0,VALID,19.3325,VALID,179,VALID,0.0234375,
2000-06-23, 00:14:00,VALID,919.338,VALID,0,VALID,92.2524,VALID,0,VALID,19.2651,VALID,173,VALID,0.636068,
2000-06-23, 00:15:00,VALID,919.33,VALID,0,VALID,91.8404,VALID,0,VALID,19.1774,VALID,181,VALID,0.675681,
2000-06-23, 00:16:00,VALID,919.318,VALID,0,VALID,91.8493,VALID,0,VALID,19.1454,VALID,194,VALID,0.549959,
2000-06-23, 00:17:00,VALID,919.315,VALID,0,VALID,91.5962,VALID,-0.0169808,VALID,19.1454,VALID,199,VALID,0.696579,
2000-06-23, 00:18:00,VALID,919.311,VALID,0,VALID,90.6985,VALID,-0.0169808,VALID,19.1389,VALID,206,VALID,1.00663,
2000-06-23, 00:19:00,VALID,919.292,VALID,0,VALID,90.8561,VALID,0,VALID,19.1486,VALID,209,VALID,0.89926,
2000-06-23, 00:20:00,VALID,919.293,VALID,0,VALID,90.0423,VALID,0,VALID,19.1844,VALID,209,VALID,0.963894,
2000-06-23, 00:21:00,VALID,919.274,VALID,0,VALID,90.0334,VALID,-0.0169808,VALID,19.207,VALID,208,VALID,0.805134,
2000-06-23, 00:22:00,VALID,919.248,VALID,0,VALID,90.6946,VALID,-0.0169808,VALID,19.2326,VALID,197,VALID,0.766964,
2000-06-23, 00:23:00,VALID,919.228,VALID,0,VALID,91.5047,VALID,-0.0509425,VALID,19.2517,VALID,173,VALID,0.629498,
2000-06-23, 00:24:00,VALID,919.191,VALID,0,VALID,91.5047,VALID,-0.0509425,VALID,19.239,VALID,157,VALID,0.832031,
2000-06-23, 00:25:00,VALID,919.163,VALID,0,VALID,90.8765,VALID,-0.0509425,VALID,19.2137,VALID,154,VALID,0.822574,
2000-06-23, 00:26:00,VALID,919.136,VALID,0,VALID,92.0438,VALID,-0.0339617,VALID,19.1938,VALID,135,VALID,0.651442,
2000-06-23, 00:27:00,VALID,919.125,VALID,0,VALID,92.5487,VALID,-0.0509425,VALID,19.1712,VALID,130,VALID,0.566016,
2000-06-23, 00:28:00,VALID,919.09,VALID,0,VALID,91.3889,VALID,-0.0169808,VALID,19.1486,VALID,153,VALID,0.760938,
2000-06-23, 00:29:00,VALID,919.071,VALID,0,VALID,91.5123,VALID,0,VALID,19.1615,VALID,156,VALID,0.615287,
2000-06-23, 00:30:00,VALID,919.046,VALID,0,VALID,92.0006,VALID,-0.0169808,VALID,19.1714,VALID,157,VALID,0.532169,
2000-06-23, 00:31:00,VALID,919.028,VALID,0,VALID,92.6593,VALID,0,VALID,19.1451,VALID,155,VALID,0.425223,
2000-06-23, 00:32:00,VALID,919.012,VALID,0,VALID,92.7864,VALID,0,VALID,19.1389,VALID,154,VALID,0.505008,
2000-06-23, 00:33:00,VALID,918.998,VALID,0,VALID,92.7839,VALID,-0.0169808,VALID,19.0872,VALID,167,VALID,0.4981,
2000-06-23, 00:34:00,VALID,918.966,VALID,0,VALID,93.1743,VALID,0,VALID,19.0619,VALID,200,VALID,0.627056,
2000-06-23, 00:35:00,VALID,918.954,VALID,0,VALID,93.4146,VALID,0,VALID,19.036,VALID,229,VALID,0.803125,
2000-06-23, 00:36:00,VALID,918.939,VALID,0,VALID,93.6728,VALID,-0.0169808,VALID,19.0427,VALID,225,VALID,1.03305,
2000-06-23, 00:37:00,VALID,918.931,VALID,0,VALID,94.0746,VALID,-0.0339617,VALID,19.0457,VALID,226,VALID,1.03551,
2000-06-23, 00:38:00,VALID,918.908,VALID,0,VALID,94.4294,VALID,0.0169808,VALID,19.0748,VALID,226,VALID,1.10135,
2000-06-23, 00:39:00,VALID,918.884,VALID,0,VALID,94.5616,VALID,0,VALID,19.0845,VALID,226,VALID,1.07484,
2000-06-23, 00:40:00,VALID,918.863,VALID,0,VALID,94.7536,VALID,-0.0339617,VALID,19.0778,VALID,223,VALID,1.20553,
2000-06-23, 00:41:00,VALID,918.837,VALID,0,VALID,94.8464,VALID,-0.0169808,VALID,19.0944,VALID,228,VALID,1.13691,
2000-06-23, 00:42:00,VALID,918.807,VALID,0,VALID,94.8871,VALID,-0.0339617,VALID,19.114,VALID,224,VALID,0.820089,
2000-06-23, 00:43:00,VALID,918.782,VALID,0,VALID,94.8515,VALID,-0.0679233,VALID,19.1366,VALID,231,VALID,0.557855,
2000-06-23, 00:44:00,VALID,918.777,VALID,0,VALID,94.8121,VALID,-0.0509425,VALID,19.1493,VALID,227,VALID,0.414522,
2000-06-23, 00:45:00,VALID,918.751,VALID,0,VALID,94.8439,VALID,0,VALID,19.1749,VALID,231,VALID,0.0792411,
2000-06-23, 00:46:00,VALID,918.733,VALID,0,VALID,94.6481,VALID,-0.0169808,VALID,19.1908,VALID,242,VALID,0,
2000-06-23, 00:47:00,VALID,918.716,VALID,0,VALID,94.4942,VALID,-0.0169808,VALID,19.1846,VALID,244,VALID,0,
2000-06-23, 00:48:00,VALID,918.708,VALID,0,VALID,94.6074,VALID,0,VALID,19.1712,VALID,244,VALID,0,
2000-06-23, 00:49:00,VALID,918.692,VALID,0,VALID,94.7129,VALID,-0.0169808,VALID,19.1844,VALID,244,VALID,0,
2000-06-23, 00:50:00,VALID,918.669,VALID,0,VALID,94.7892,VALID,0,VALID,19.2072,VALID,244,VALID,0,
2000-06-23, 00:51:00,VALID,918.675,VALID,0,VALID,94.7523,VALID,-0.0509425,VALID,19.2104,VALID,239,VALID,0,
2000-06-23, 00:52:00,VALID,918.665,VALID,0,VALID,94.6951,VALID,-0.0169808,VALID,19.2067,VALID,221,VALID,0.294488,
2000-06-23, 00:53:00,VALID,918.656,VALID,0,VALID,94.6201,VALID,0,VALID,19.207,VALID,218,VALID,0.506579,
2000-06-23, 00:54:00,VALID,918.652,VALID,0,VALID,94.6201,VALID,0,VALID,19.2072,VALID,216,VALID,0.517628,
2000-06-23, 00:55:00,VALID,918.65,VALID,0,VALID,94.5502,VALID,-0.0169808,VALID,19.2008,VALID,226,VALID,0.512305,
2000-06-23, 00:56:00,VALID,918.654,VALID,0,VALID,94.4154,VALID,0,VALID,19.1913,VALID,221,VALID,0.230804,
2000-06-23, 00:57:00,VALID,918.643,VALID,0,VALID,94.2793,VALID,-0.0339617,VALID,19.1784,VALID,217,VALID,0.0578547,
2000-06-23, 00:58:00,VALID,918.644,VALID,0,VALID,93.8508,VALID,-0.0169808,VALID,19.1717,VALID,212,VALID,0,
2000-06-23, 00:59:00,VALID,918.625,VALID,0,VALID,93.3002,VALID,-0.0169808,VALID,19.1555,VALID,216,VALID,0,
2000-06-23, 01:00:00,VALID,918.62,VALID,0,VALID,93.0217,VALID,-0.0169808,VALID,19.1555,VALID,212,VALID,0.586138,
2000-06-23, 01:01:00,VALID,918.61,VALID,0,VALID,93.0509,VALID,-0.0169808,VALID,19.1682,VALID,203,VALID,0.556588,
2000-06-23, 01:02:00,VALID,918.603,VALID,0,VALID,92.6529,VALID,0,VALID,19.159,VALID,178,VALID,0.671669,
2000-06-23, 01:03:00,VALID,918.581,VALID,0,VALID,92.6339,VALID,0,VALID,19.1429,VALID,174,VALID,0.79442,
2000-06-23, 01:04:00,VALID,918.556,VALID,0,VALID,92.8729,VALID,0,VALID,19.123,VALID,173,VALID,0.930088,
2000-06-23, 01:05:00,VALID,918.54,VALID,0,VALID,92.9479,VALID,-0.0339617,VALID,19.1205,VALID,159,VALID,0.59446,
2000-06-23, 01:06:00,VALID,918.504,VALID,0,VALID,92.8971,VALID,0,VALID,19.1133,VALID,174,VALID,0.473958,
2000-06-23, 01:07:00,VALID,918.475,VALID,0,VALID,92.8856,VALID,-0.0169808,VALID,19.117,VALID,188,VALID,0.674548,
2000-06-23, 01:08:00,VALID,918.44,VALID,0,VALID,92.9899,VALID,-0.0169808,VALID,19.1076,VALID,203,VALID,0.473758,
2000-06-23, 01:09:00,VALID,918.411,VALID,0,VALID,92.9276,VALID,-0.0169808,VALID,19.078,VALID,207,VALID,0.803516,
2000-06-23, 01:10:00,VALID,918.376,VALID,0,VALID,92.92,VALID,0.0339617,VALID,19.0651,VALID,202,VALID,0.782812,
2000-06-23, 01:11:00,VALID,918.371,VALID,0,VALID,92.8996,VALID,0.0169808,VALID,19.0852,VALID,206,VALID,0.538851,
2000-06-23, 01:12:00,VALID,918.351,VALID,0,VALID,93.1387,VALID,0,VALID,19.075,VALID,216,VALID,0.818934,
2000-06-23, 01:13:00,VALID,918.333,VALID,0,VALID,93.4133,VALID,0,VALID,19.0656,VALID,204,VALID,0.690848,
2000-06-23, 01:14:00,VALID,918.318,VALID,0,VALID,93.8457,VALID,-0.0169808,VALID,19.0363,VALID,198,VALID,0.985577,
2000-06-23, 01:15:00,VALID,918.301,VALID,0,VALID,94.1865,VALID,-0.0169808,VALID,19.0077,VALID,196,VALID,0.729519,
2000-06-23, 01:16:00,VALID,918.286,VALID,0,VALID,94.334,VALID,-0.0169808,VALID,18.9687,VALID,179,VALID,0.655428,
2000-06-23, 01:17:00,VALID,918.22,VALID,0,VALID,94.4967,VALID,0,VALID,18.9202,VALID,166,VALID,0.887541,
2000-06-23, 01:18:00,VALID,918.22,VALID,0,VALID,94.5603,VALID,-0.0169808,VALID,18.8845,VALID,163,VALID,0.838942,
2000-06-23, 01:19:00,VALID,918.197,VALID,0,VALID,94.676,VALID,-0.0339617,VALID,18.8494,VALID,165,VALID,0.856771,
2000-06-23, 01:20:00,VALID,918.164,VALID,0,VALID,94.8795,VALID,-0.0169808,VALID,18.8358,VALID,172,VALID,0.746745,
2000-06-23, 01:21:00,VALID,918.136,VALID,0,VALID,94.8439,VALID,0,VALID,18.8427,VALID,172,VALID,0.691201,
2000-06-23, 01:22:00,VALID,918.104,VALID,0,VALID,94.8592,VALID,0,VALID,18.836,VALID,171,VALID,0.821314,
2000-06-23, 01:23:00,VALID,918.091,VALID,0,VALID,94.8147,VALID,-0.0169808,VALID,18.836,VALID,166,VALID,0.853516,
2000-06-23, 01:24:00,VALID,918.082,VALID,0,VALID,94.6633,VALID,0,VALID,18.8305,VALID,169,VALID,0.842411,
2000-06-23, 01:25:00,VALID,918.097,VALID,0,VALID,94.6048,VALID,-0.0169808,VALID,18.8007,VALID,173,VALID,0.799198,
2000-06-23, 01:26:00,VALID,918.095,VALID,0,VALID,94.5476,VALID,0,VALID,18.7846,VALID,182,VALID,0.936811,
2000-06-23, 01:27:00,VALID,918.108,VALID,0,VALID,94.4599,VALID,-0.0169808,VALID,18.788,VALID,179,VALID,0.785268,
2000-06-23, 01:28:00,VALID,918.112,VALID,0,VALID,94.0402,VALID,-0.0169808,VALID,18.7841,VALID,189,VALID,0.991787,
2000-06-23, 01:29:00,VALID,918.113,VALID,0,VALID,93.7948,VALID,-0.0169808,VALID,18.8166,VALID,197,VALID,0.815034,
2000-06-23, 01:30:00,VALID,918.108,VALID,0,VALID,93.4578,VALID,0,VALID,18.8492,VALID,198,VALID,1.0553,
2000-06-23, 01:31:00,VALID,918.094,VALID,0,VALID,93.0802,VALID,0,VALID,18.8946,VALID,197,VALID,1.0558,
2000-06-23, 01:32:00,VALID,918.067,VALID,0,VALID,92.7763,VALID,-0.0169808,VALID,18.9331,VALID,200,VALID,1.03946,
2000-06-23, 01:33:00,VALID,918.036,VALID,0,VALID,92.616,VALID,-0.0339617,VALID,18.9657,VALID,194,VALID,0.827888,
2000-06-23, 01:34:00,VALID,917.994,VALID,0,VALID,92.4876,VALID,-0.0169808,VALID,18.9915,VALID,187,VALID,0.505208,
2000-06-23, 01:35:00,VALID,917.964,VALID,0,VALID,92.3961,VALID,0,VALID,18.9913,VALID,170,VALID,0.713405,
2000-06-23, 01:36:00,VALID,917.932,VALID,0,VALID,92.4571,VALID,0.0169808,VALID,18.9821,VALID,158,VALID,0.676082,
2000-06-23, 01:37:00,VALID,917.918,VALID,0,VALID,92.2282,VALID,0,VALID,18.9595,VALID,171,VALID,0.664844,
2000-06-23, 01:38:00,VALID,917.899,VALID,0,VALID,92.2333,VALID,-0.0509425,VALID,18.9465,VALID,172,VALID,0.811607,
2000-06-23, 01:39:00,VALID,917.889,VALID,0,VALID,92.1888,VALID,-0.0339617,VALID,18.9071,VALID,172,VALID,0.75359,
2000-06-23, 01:40:00,VALID,917.88,VALID,0,VALID,92.2689,VALID,0,VALID,18.9071,VALID,167,VALID,0.710248,
2000-06-23, 01:41:00,VALID,917.451,VALID,0,VALID,92.1278,VALID,-0.0169808,VALID,18.8981,VALID,165,VALID,0.766964,
2000-06-23, 01:42:00,VALID,917.857,VALID,0,VALID,91.7704,VALID,-0.0339617,VALID,18.8879,VALID,173,VALID,0.911258,
2000-06-23, 01:43:00,VALID,917.837,VALID,0,VALID,91.7984,VALID,0,VALID,18.9075,VALID,169,VALID,0.712204,
2000-06-23, 01:44:00,VALID,917.8,VALID,0,VALID,91.9637,VALID,0,VALID,18.9205,VALID,171,VALID,0.817023,
2000-06-23, 01:45:00,VALID,917.774,VALID,0,VALID,91.862,VALID,-0.0169808,VALID,18.8944,VALID,182,VALID,0.916071,
2000-06-23, 01:46:00,VALID,917.758,VALID,0,VALID,92.082,VALID,-0.0169808,VALID,18.9011,VALID,181,VALID,0.817508,
2000-06-23, 01:47:00,VALID,917.72,VALID,0,VALID,92.3274,VALID,0,VALID,18.9048,VALID,177,VALID,0.870739,
2000-06-23, 01:48:00,VALID,917.695,VALID,0,VALID,92.452,VALID,-0.0339617,VALID,18.8782,VALID,173,VALID,0.709418,
2000-06-23, 01:49:00,VALID,917.675,VALID,0,VALID,92.6923,VALID,0,VALID,18.8563,VALID,176,VALID,0.685444,
2000-06-23, 01:50:00,VALID,917.647,VALID,0,VALID,92.7559,VALID,-0.0679233,VALID,18.837,VALID,171,VALID,0.752003,
2000-06-23, 01:51:00,VALID,917.617,VALID,0,VALID,92.6542,VALID,0,VALID,18.8074,VALID,181,VALID,0.809961,
2000-06-23, 01:52:00,VALID,917.61,VALID,0,VALID,92.6186,VALID,-0.0169808,VALID,18.8208,VALID,186,VALID,0.903795,
2000-06-23, 01:53:00,VALID,917.58,VALID,0,VALID,92.3732,VALID,-0.0339617,VALID,18.8303,VALID,189,VALID,0.871199,
2000-06-23, 01:54:00,VALID,917.575,VALID,0,VALID,91.8823,VALID,0,VALID,18.8395,VALID,190,VALID,0.89591,
2000-06-23, 01:55:00,VALID,917.574,VALID,0,VALID,91.6445,VALID,-0.0339617,VALID,18.8656,VALID,181,VALID,1.00379,
2000-06-23, 01:56:00,VALID,917.587,VALID,0,VALID,91.5301,VALID,-0.0169808,VALID,18.8946,VALID,175,VALID,0.997196,
2000-06-23, 01:57:00,VALID,917.6,VALID,0,VALID,91.3839,VALID,0,VALID,18.92,VALID,181,VALID,0.85663,
2000-06-23, 01:58:00,VALID,917.586,VALID,0,VALID,91.2046,VALID,-0.0339617,VALID,18.9532,VALID,171,VALID,0.915913,
2000-06-23, 01:59:00,VALID,917.6,VALID,0,VALID,91.3597,VALID,-0.0339617,VALID,18.9401,VALID,164,VALID,0.884598,
2000-06-23, 02:00:00,VALID,917.606,VALID,0,VALID,91.1079,VALID,0,VALID,18.9205,VALID,168,VALID,0.83774,
2000-06-23, 02:01:00,VALID,917.604,VALID,0,VALID,90.9007,VALID,-0.0339617,VALID,18.9008,VALID,164,VALID,0.889205,
2000-06-23, 02:02:00,VALID,917.614,VALID,0,VALID,91.3533,VALID,-0.0169808,VALID,18.9112,VALID,155,VALID,0.756727,
2000-06-23, 02:03:00,VALID,917.609,VALID,0,VALID,91.7997,VALID,-0.0849042,VALID,18.821,VALID,146,VALID,0.79338,
2000-06-23, 02:04:00,VALID,917.63,VALID,0,VALID,92.4278,VALID,-0.0509425,VALID,18.717,VALID,150,VALID,0.702324,
2000-06-23, 02:05:00,VALID,917.63,VALID,0,VALID,92.8958,VALID,-0.0169808,VALID,18.6623,VALID,166,VALID,0.757422,
2000-06-23, 02:06:00,VALID,917.642,VALID,0,VALID,93.2086,VALID,-0.0339617,VALID,18.6295,VALID,155,VALID,0.684375,
2000-06-23, 02:07:00,VALID,917.655,VALID,0,VALID,93.3053,VALID,-0.0169808,VALID,18.6143,VALID,151,VALID,0.475718,
2000-06-23, 02:08:00,VALID,917.67,VALID,0,VALID,93.5558,VALID,-0.0509425,VALID,18.5853,VALID,144,VALID,0.414063,
2000-06-23, 02:09:00,VALID,917.654,VALID,0,VALID,93.7096,VALID,0,VALID,18.5299,VALID,124,VALID,0.301116,
2000-06-23, 02:10:00,VALID,917.657,VALID,0,VALID,93.7122,VALID,0.0509425,VALID,18.4999,VALID,124,VALID,0,
2000-06-23, 02:11:00,VALID,917.667,VALID,0,VALID,93.8012,VALID,0.0849042,VALID,18.4482,VALID,124,VALID,0,
2000-06-23, 02:12:00,VALID,917.657,VALID,0,VALID,94.1394,VALID,0.0679233,VALID,18.3896,VALID,134,VALID,0.00102796,
2000-06-23, 02:13:00,VALID,917.649,VALID,0,VALID,94.5374,VALID,0.0849042,VALID,18.3647,VALID,134,VALID,0,
2000-06-23, 02:14:00,VALID,917.636,VALID,0,VALID,94.8681,VALID,0.101885,VALID,18.3504,VALID,139,VALID,0,
2000-06-23, 02:15:00,VALID,917.617,VALID,0,VALID,94.9787,VALID,0.101885,VALID,18.3603,VALID,145,VALID,0,
2000-06-23, 02:16:00,VALID,917.611,VALID,0,VALID,94.8312,VALID,0.0679233,VALID,18.3739,VALID,147,VALID,0,
2000-06-23, 02:17:00,VALID,917.602,VALID,0,VALID,94.5845,VALID,0.0849042,VALID,18.3638,VALID,147,VALID,0,
2000-06-23, 02:18:00,VALID,917.595,VALID,0,VALID,94.4599,VALID,0.0849042,VALID,18.3382,VALID,147,VALID,0,
2000-06-23, 02:19:00,VALID,917.581,VALID,0,VALID,94.5552,VALID,0.0849042,VALID,18.3255,VALID,147,VALID,0,
2000-06-23, 02:20:00,VALID,917.575,VALID,0,VALID,94.7778,VALID,0.0679233,VALID,18.2731,VALID,146,VALID,0,
2000-06-23, 02:21:00,VALID,917.567,VALID,0,VALID,95.1618,VALID,0.0849042,VALID,18.2411,VALID,149,VALID,0,
2000-06-23, 02:22:00,VALID,917.575,VALID,0,VALID,95.4848,VALID,0.101885,VALID,18.2125,VALID,165,VALID,0,
2000-06-23, 02:23:00,VALID,917.559,VALID,0,VALID,95.6107,VALID,0.101885,VALID,18.1797,VALID,174,VALID,0,
2000-06-23, 02:24:00,VALID,917.576,VALID,0,VALID,95.0563,VALID,0.0849042,VALID,18.1604,VALID,181,VALID,0.5625,
2000-06-23, 02:25:00,VALID,917.574,VALID,0,VALID,94.5718,VALID,0,VALID,18.2063,VALID,192,VALID,1.03062,
2000-06-23, 02:26:00,VALID,917.586,VALID,0,VALID,94.4828,VALID,-0.0169808,VALID,18.2787,VALID,191,VALID,1.15584,
2000-06-23, 02:27:00,VALID,917.595,VALID,0,VALID,94.3759,VALID,-0.0339617,VALID,18.2907,VALID,185,VALID,1.16205,
2000-06-23, 02:28:00,VALID,917.599,VALID,0,VALID,94.4688,VALID,-0.0339617,VALID,18.3036,VALID,182,VALID,1.39964,
2000-06-23, 02:29:00,VALID,917.606,VALID,0,VALID,94.4116,VALID,-0.0169808,VALID,18.3202,VALID,185,VALID,1.15009,
2000-06-23, 02:30:00,VALID,917.603,VALID,0,VALID,94.5311,VALID,0,VALID,18.3073,VALID,185,VALID,1.20681,
2000-06-23, 02:31:00,VALID,917.594,VALID,0,VALID,94.8986,VALID,-0.0679233,VALID,18.3142,VALID,186,VALID,1.29749,
2000-06-23, 02:32:00,VALID,917.607,VALID,0,VALID,94.6824,VALID,-0.0509425,VALID,18.3077,VALID,189,VALID,1.33474,
2000-06-23, 02:33:00,VALID,917.597,VALID,0,VALID,94.6493,VALID,-0.0849042,VALID,18.3043,VALID,192,VALID,1.14121,
2000-06-23, 02:34:00,VALID,917.61,VALID,0,VALID,94.7663,VALID,-0.0169808,VALID,18.2946,VALID,202,VALID,0.905804,
2000-06-23, 02:35:00,VALID,917.623,VALID,0,VALID,94.8693,VALID,0,VALID,18.3013,VALID,200,VALID,0.857686,
2000-06-23, 02:36:00,VALID,917.615,VALID,0,VALID,94.9978,VALID,-0.0679233,VALID,18.3047,VALID,208,VALID,1.24334,
2000-06-23, 02:37:00,VALID,917.618,VALID,0,VALID,95.1961,VALID,-0.0679233,VALID,18.3045,VALID,205,VALID,1.4904,
2000-06-23, 02:38:00,VALID,917.614,VALID,0,VALID,95.2165,VALID,-0.0679233,VALID,18.3043,VALID,208,VALID,1.53946,
2000-06-23, 02:39:00,VALID,917.604,VALID,0,VALID,95.158,VALID,-0.0169808,VALID,18.2983,VALID,214,VALID,1.54223,
2000-06-23, 02:40:00,VALID,917.593,VALID,0,VALID,94.8604,VALID,-0.0169808,VALID,18.2948,VALID,208,VALID,1.66221,
2000-06-23, 02:41:00,VALID,917.585,VALID,0,VALID,94.7523,VALID,-0.0339617,VALID,18.2914,VALID,210,VALID,1.64152,
2000-06-23, 02:42:00,VALID,917.57,VALID,0,VALID,94.5324,VALID,0,VALID,18.2847,VALID,199,VALID,1.50921,
2000-06-23, 02:43:00,VALID,917.552,VALID,0,VALID,94.4599,VALID,-0.0169808,VALID,18.2916,VALID,193,VALID,1.16454,
2000-06-23, 02:44:00,VALID,917.533,VALID,0,VALID,94.3899,VALID,-0.0169808,VALID,18.311,VALID,190,VALID,1.45443,
2000-06-23, 02:45:00,VALID,917.499,VALID,0,VALID,94.3518,VALID,-0.0169808,VALID,18.3043,VALID,194,VALID,1.15563,
2000-06-23, 02:46:00,VALID,917.475,VALID,0,VALID,94.5298,VALID,0,VALID,18.2946,VALID,194,VALID,0.719151,
2000-06-23, 02:47:00,VALID,917.457,VALID,0,VALID,94.6087,VALID,0,VALID,18.2914,VALID,200,VALID,0.934961,
2000-06-23, 02:48:00,VALID,917.438,VALID,0,VALID,94.5985,VALID,-0.0339617,VALID,18.272,VALID,204,VALID,0.906473,
2000-06-23, 02:49:00,VALID,917.415,VALID,0,VALID,94.7473,VALID,0,VALID,18.2621,VALID,203,VALID,1.15878,
2000-06-23, 02:50:00,VALID,917.398,VALID,0,VALID,94.6989,VALID,0,VALID,18.2427,VALID,205,VALID,0.794347,
2000-06-23, 02:51:00,VALID,917.385,VALID,0,VALID,94.1661,VALID,-0.0169808,VALID,18.2595,VALID,204,VALID,0.996429,
2000-06-23, 02:52:00,VALID,917.383,VALID,0,VALID,93.7109,VALID,0,VALID,18.2851,VALID,206,VALID,0.983774,
2000-06-23, 02:53:00,VALID,917.383,VALID,0,VALID,92.6478,VALID,-0.0169808,VALID,18.3075,VALID,202,VALID,1.35008,
2000-06-23, 02:54:00,VALID,917.373,VALID,0,VALID,92.054,VALID,-0.0169808,VALID,18.382,VALID,205,VALID,1.08039,
2000-06-23, 02:55:00,VALID,917.371,VALID,0,VALID,91.3101,VALID,-0.0509425,VALID,18.4439,VALID,214,VALID,1.48147,
2000-06-23, 02:56:00,VALID,917.366,VALID,0,VALID,91.2745,VALID,-0.0509425,VALID,18.4921,VALID,212,VALID,1.39623,
2000-06-23, 02:57:00,VALID,917.349,VALID,0,VALID,91.1537,VALID,-0.0849042,VALID,18.5405,VALID,216,VALID,1.62902,
2000-06-23, 02:58:00,VALID,917.333,VALID,0,VALID,90.9909,VALID,-0.0679233,VALID,18.5564,VALID,213,VALID,1.72917,
2000-06-23, 02:59:00,VALID,917.318,VALID,0,VALID,90.9172,VALID,-0.0339617,VALID,18.5857,VALID,212,VALID,1.49753,
2000-06-23, 03:00:00,VALID,917.29,VALID,0,VALID,89.9406,VALID,-0.0509425,VALID,18.5922,VALID,208,VALID,1.45473,
2000-06-23, 03:01:00,VALID,917.279,VALID,0,VALID,89.6583,VALID,-0.0849042,VALID,18.6277,VALID,197,VALID,1.25957,
2000-06-23, 03:02:00,VALID,917.271,VALID,0,VALID,89.0021,VALID,-0.0169808,VALID,18.6566,VALID,196,VALID,1.57723,
2000-06-23, 03:03:00,VALID,917.256,VALID,0,VALID,89.2221,VALID,-0.0849042,VALID,18.7052,VALID,203,VALID,0.952703,
2000-06-23, 03:04:00,VALID,917.262,VALID,0,VALID,88.9233,VALID,-0.0679233,VALID,18.7211,VALID,205,VALID,1.24265,
2000-06-23, 03:05:00,VALID,917.266,VALID,0,VALID,88.1146,VALID,-0.0339617,VALID,18.7276,VALID,200,VALID,1.45402,
2000-06-23, 03:06:00,VALID,917.287,VALID,0,VALID,87.5271,VALID,-0.0339617,VALID,18.7724,VALID,208,VALID,1.38762,
2000-06-23, 03:07:00,VALID,917.297,VALID,0,VALID,87.0528,VALID,-0.0509425,VALID,18.8275,VALID,194,VALID,1.70122,
2000-06-23, 03:08:00,VALID,917.312,VALID,0,VALID,86.8404,VALID,-0.0509425,VALID,18.876,VALID,206,VALID,1.4963,
2000-06-23, 03:09:00,VALID,917.32,VALID,0,VALID,86.9879,VALID,-0.0169808,VALID,18.9053,VALID,219,VALID,1.47388,
2000-06-23, 03:10:00,VALID,917.307,VALID,0,VALID,87.4966,VALID,-0.0509425,VALID,18.9115,VALID,232,VALID,1.44111,
2000-06-23, 03:11:00,VALID,917.319,VALID,0,VALID,89.025,VALID,-0.0169808,VALID,18.8854,VALID,238,VALID,1.38826,
2000-06-23, 03:12:00,VALID,917.309,VALID,0,VALID,89.7371,VALID,-0.0509425,VALID,18.8243,VALID,227,VALID,1.55621,
2000-06-23, 03:13:00,VALID,917.305,VALID,0,VALID,90.8078,VALID,-0.0339617,VALID,18.7793,VALID,226,VALID,1.43894,
2000-06-23, 03:14:00,VALID,917.296,VALID,0,VALID,91.1321,VALID,-0.0849042,VALID,18.7078,VALID,224,VALID,1.40465,
2000-06-23, 03:15:00,VALID,917.3,VALID,0,VALID,91.1651,VALID,-0.0509425,VALID,18.6595,VALID,215,VALID,1.33066,
2000-06-23, 03:16:00,VALID,917.306,VALID,0,VALID,91.6598,VALID,-0.0849042,VALID,18.6272,VALID,224,VALID,1.08192,
2000-06-23, 03:17:00,VALID,917.306,VALID,0,VALID,91.8556,VALID,-0.0339617,VALID,18.6014,VALID,213,VALID,1.21748,
2000-06-23, 03:18:00,VALID,917.313,VALID,0,VALID,91.1423,VALID,-0.0509425,VALID,18.5793,VALID,208,VALID,1.41337,
2000-06-23, 03:19:00,VALID,917.33,VALID,0,VALID,90.242,VALID,-0.0339617,VALID,18.5763,VALID,205,VALID,1.45513,
2000-06-23, 03:20:00,VALID,917.342,VALID,0,VALID,89.0695,VALID,-0.0679233,VALID,18.6046,VALID,214,VALID,1.63221,
2000-06-23, 03:21:00,VALID,917.353,VALID,0,VALID,88.0332,VALID,-0.0169808,VALID,18.6946,VALID,228,VALID,1.69975,
2000-06-23, 03:22:00,VALID,917.355,VALID,0,VALID,87.4165,VALID,-0.0169808,VALID,18.8533,VALID,207,VALID,1.96423,
2000-06-23, 03:23:00,VALID,917.359,VALID,0,VALID,87.4317,VALID,-0.0509425,VALID,18.9729,VALID,210,VALID,1.67679,
2000-06-23, 03:24:00,VALID,917.339,VALID,0,VALID,87.8145,VALID,-0.0339617,VALID,19.0377,VALID,239,VALID,1.4395,
2000-06-23, 03:25:00,VALID,917.346,VALID,0,VALID,88.1235,VALID,0.0509425,VALID,19.0271,VALID,232,VALID,1.25805,
2000-06-23, 03:26:00,VALID,917.328,VALID,0,VALID,87.9124,VALID,0.0339617,VALID,19.0164,VALID,228,VALID,1.88845,
2000-06-23, 03:27:00,VALID,917.309,VALID,0,VALID,87.7547,VALID,0.0169808,VALID,19.0291,VALID,224,VALID,1.38877,
2000-06-23, 03:28:00,VALID,917.307,VALID,0,VALID,88.1057,VALID,0.0849042,VALID,19.0455,VALID,214,VALID,0.905849,
2000-06-23, 03:29:00,VALID,917.296,VALID,0,VALID,88.3752,VALID,0.0679233,VALID,19.0291,VALID,224,VALID,0.567187,
2000-06-23, 03:30:00,VALID,917.29,VALID,0,VALID,88.5202,VALID,0.0509425,VALID,19.0037,VALID,214,VALID,0.402009,
2000-06-23, 03:31:00,VALID,917.29,VALID,0,VALID,88.7694,VALID,0.0679233,VALID,18.9843,VALID,207,VALID,0.138514,
2000-06-23, 03:32:00,VALID,917.297,VALID,0,VALID,89.0517,VALID,0.0509425,VALID,18.9583,VALID,182,VALID,0.0565257,
2000-06-23, 03:33:00,VALID,917.311,VALID,0,VALID,89.3989,VALID,0.0679233,VALID,18.9359,VALID,131,VALID,0.173661,